Simultaneous Nadir Overpasses (SNOs) Predictions

Prediction of SNOs between METOP-B and TERRA Satellite Orbit:

Table of predicted SNOs for the next 14.0 days since TLE Epoch: 4/28/2018
Index Date (METOP-B) Time (METOP-B) Lat,Lon (METOP-B) SZA (METOP-B ) Date (TERRA) Time (TERRA) Lat,Lon (TERRA) SZA (TERRA ) Distance(km) Time Diff (sec)
1 04/29/2018 06:34:35 -81.34, -51.05 110.16 04/29/2018 06:35:36 -81.34, -50.87 110.11 3.00 61
2 04/29/2018 07:25:14 81.35, 116.90 69.91 04/29/2018 07:25:02 81.35, 116.91 69.91 0.22 12
3 05/02/2018 02:08:56 -81.34, 15.37 111.00 05/02/2018 02:09:54 -81.33, 15.47 110.96 1.81 58
4 05/02/2018 02:59:35 81.35,-176.74 69.06 05/02/2018 02:59:20 81.34,-176.77 69.05 0.80 15
5 05/04/2018 21:43:15 -81.34, 82.15 111.77 05/04/2018 21:44:10 -81.35, 82.17 111.73 0.68 55
6 05/04/2018 22:33:54 81.35,-109.99 68.29 05/04/2018 22:33:36 81.35,-110.09 68.28 1.77 18
7 05/07/2018 17:17:36 -81.34, 148.53 112.55 05/07/2018 17:18:28 -81.34, 148.47 112.53 1.02 52
8 05/07/2018 18:08:15 81.35, -43.65 67.51 05/07/2018 18:07:54 81.35, -43.81 67.48 2.61 21
9 05/10/2018 12:51:57 -81.34,-145.11 113.30 05/10/2018 12:52:46 -81.33,-145.25 113.29 2.48 49




NCC Satellite Simultaneous Nadir Overpasses (SNOs) Prediction Service
